Погода в Койнасе

Погода в Койнасе : погода сейчас, прогноз погоды и архив. Всё, что Вы хотите узнать о погоде в Койнасе!

Поиск расширенной информации на нашем сайте:

Другие новости

Новости СМИ2

Главная страница сайта

Новости сайта

03.07.2017

Напоминаем, что на нашем специализированном сайте Метеоцентр.Азия вы можете получить высокодетализированные автоматические прогнозы погоды по пунктам России, СНГ и мира в авиационном формате (включающие направление и скорость ветра, видимость, явления погоды, количество и форму облачности, нижнюю и верхнюю границу облачности).


Погода в Койнасе - сегодня

Время (UTC), дата Ветер
(°,м/с) 
Видим.   Явления Облачность Т
(°С)
Тd
(°С)
f(%) Тe
(°С)
Pmin
(гПа)
dP
(гПа)
Po
(мм)
O2
(г/м3)
Тmin Tmax R s Состояние
почвы
18 12.12.17 150 (ЮВ) 50000 м    10/10 270 м 
[St]
-7.4 -8.4 93 -9  1019.3  -1.4  758  315           
21 12.12.17 140 (ЮВ) 50000 м    10/10 300 м 
[St]
-7.4 -8.5 92 -9  1018.1  -1.2  757  315           
00 13.12.17 140 (ЮВ) 50000 м    10/10 300 м 
[St]
-6.2 -7.2 93 -9  1016  -2  756  312           
03 13.12.17 150 (ЮВ) 40000 м    10/10 330 м 
[St]
-5.5 -6.8 91 -9  1011.4  -4.6  752  310  -7.5      33  равномерный
сухой снег
100% 
06 13.12.17 160 (Ю) 4{13}  50000 м    10/10 330 м 
[St]
-4.2 -5.6 90 -7  1007.7  -3.6  750  307           
09 13.12.17 150 (ЮВ) 4{12}  45000 м  позёмок  10/10 360 м 
[St]
-3.5 -5.2 88 -6  1005.2  -2.5  748  306           
12 13.12.17 150 (ЮВ) 4{12}  12000 м  слаб. ливневой снег  10/9 500 м кучево-дожд., средняя 
[Cb cap|Ac As]
-2.8 -4.2 90 -6  1001.4  -3.7  745  304           
15 13.12.17 160 (Ю) 4{10}  45000 м  позёмок{ливн. осадки}  10/9 480 м кучево-дожд., средняя 
[Cb cap|Ac As]
-1.9 -3.2 91 -5  998.5  -2.9  743  302    -1.7     
18 13.12.17 160 (Ю) 3{11}  50000 м  {ливн. осадки}  9/9 480 м 
[Sc]
-0.7 -2.6 87 -3  997.5  -0.9  742  300           
21 13.12.17 180 (Ю) 7000 м  слаб. ливневой снег  10/10 480 м кучево-дожд. 
[Cb cap]
+0 -0.6 96 -1  996.7  -0.8  742  299           
00 14.12.17 230 (ЮЗ) 50000 м  {ливн. осадки}  3/3 300 м 
[Sc]
-1.2 -2.6 90 -2  999.7  2.9  744  301           
03 14.12.17 220 (ЮЗ) 2{11}  50000 м  {ливн. осадки}  9/9 960 м 
[Sc]
-1.8 -4.8 80 -3  1002.6  2.9  746  303  -2    34  равномерный
сухой снег
100% 
06 14.12.17 200 (Ю) 50000 м    9/9 1080 м 
[Sc]
-1.2 -4.1 81 -2  1004.8  2.2  748  303           
09 14.12.17 200 (Ю) 50000 м    10/10 720 м 
[Sc]
-1.6 -3.9 84 -3  1007  2.2  749  304           
12 14.12.17 200 (Ю) 50000 м    10/10 500 м 
[Sc]
-1.8 -3.8 86 -3  1008.8  1.7  750  305           
15 14.12.17 220 (ЮЗ) 50000 м    10/10 360 м 
[St]
-2.6 -4.3 88 -4  1010.4  1.6  752  306    -1.2       
18 14.12.17 190 (Ю) 50000 м    10/10 300 м 
[St]
-3.3 -4.7 90 -4  1011.5  1.1  752  307           
21 14.12.17 210 (ЮЗ) 50000 м    10/10 240 м 
[St]
-3.9 -4.9 93 -3  1011.9  0.4  753  308           
00 15.12.17 170 (Ю) 50000 м    10/10 300 м 
[St]
-4.1 -5.5 90 -4  1011.7  -0.2  753  308           
03 15.12.17 180 (Ю) 50000 м    10/10 300 м 
[St]
-4.5 -6 89 -6  1011.6  -0.2  752  309  -4.5      34  равномерный
сухой снег
100% 
06 15.12.17 180 (Ю) 50000 м    10/10 300 м 
[St]
-5.1 -6.4 91 -5  1012.1  0.5  753  310  -5.2         
09 15.12.17 160 (Ю) 50000 м    10/10 270 м 
[St]
-4.4 -5.7 91 -4  1012.2  0.1  753  309           
12 15.12.17 тихо ()   50000 м    10/10 210 м 
[St]
-4.3 -5.4 92 -4  1011.6  -0.7  752  309           
15 15.12.17 тихо ()   50000 м    10/10 150 м 
[St]
-3.8 -4.6 94 -4  1010.7  -0.8  752  308    -3.8       
18 15.12.17 140 (ЮВ) 7000 м  снежные зёрна  10/10 150 м 
[St]
-2.4 -2.7 98 -2  1009.4  -1.3  751  306           
Время (UTC), дата Ветер
(°,м/с) 
Видим.   Явления Облачность Т
(°С)
Тd
(°С)
f(%) Тe
(°С)
Pmin
(гПа)
dP
(гПа)
Po
(мм)
O2
(г/м3)
Тmin Tmax R s Состояние
почвы

Для получения пояснительной информации подведите курсор к названию столбца.

ПОГОДА в Койнасе - архив

Всё, что Вы хотите узнать о погоде в Койнасе - удобно и подробно!

Выберите нужную дату (начиная с 1 января 2015* года) и нажмите кнопку "Найти".
Будут отображены архивные сводки погоды по пункту Койнас, начиная с указанной даты.


Отображать данные в формате CSV (для использования в таблицах Excel)


Внимание! Наш архив погоды предназначен исключительно для личного некоммерческого использования в познавательных целях. Если Вам необходимы официальные справки о состоянии погоды (для производственных, юридических, коммерческих и т.п. целей), обращайтесь в органы Росгидромета.

*Примечание: данная дата относится к архиву по метеостанциям СССР (Россия, СНГ, Балтия).
Архив по метеостанциям Зарубежной Европы и Азии (кроме Китая) хранится 10 дней, по другим регионам земного шара (Китай, Африка, Америка, Австралия, Океания) - 1 день.

Койнас - район местоположения метеостанции


Название, широта, долгота, высота метеостанции:
Койнас 64.8°ш. 47.6°д. 64 м над ур. моря [Российская Федерация]

Дополнительная информация

В oтличие oт бoльшинства пoгoдных сайтoв мы публикуем пoдрoбную метеoинфoрмацию в детальнoм прoфессиoнальнoм фoрмате.

Характеристики температуры и влажнoсти вoздуха измеряются на высoте 2 м в тени вдали oт зданий и деревьев.
Скoрoсть ветра измеряется на высoте 10 м (на урoвне рoста челoвека скoрoсть ветра ниже в 1.5-2 раза). Если метеoстанция нахoдится в гoрoде или в лесу, тo скoрoсть ветра занижена на 2-4 м/с пo сравнению с oткрытым местoм. Скoрoсть ветра над акватoриями крупных рек и oзёр, а также на вершинах хoлмoв на 2-5 м/с выше, чем в oбычных услoвиях.
Атмoсфернoе давление в разных тoчках местнoсти мoжет значительнo oтличаться oт давления на метеoстанции, в зависимoсти oт услoвий рельефа (при пoдъёме на 10 м давление пoнижается примернo на 1 мм рт.ст.).